Regional Weather Roundup
Issued by NWS Sterling, VA

Home | Current Version | Previous Version | Graphics & Text | Print | Product List | Glossary On
Versions: 1 2 3 4 5 6 7 8 9 10 11 12 13 14 15 16 17 18 19 20 21 22 23 24 25 26 27 28
000
ASUS41 KLWX 151210
RWRLWX

REGIONAL WEATHER ROUNDUP
NATIONAL WEATHER SERVICE BALTIMORE MD/WASHINGTON DC
800 AM EDT TUE APR 15 2014

Note: "FAIR" indicates few or no clouds below 12,000 feet
with no significant weather and/or obstructions to visibility.
 TC=TEMPERATURE CELSIUS

 * =Non NWS site. Station does not report precipitation (e.g. rain,
    snow, etc.), thunder, or fog.

DCZ001-MDZ009-015-VAZ040>042-051-053>054-151300-
WASHINGTON METRO

CITY           SKY/WX    TMP DP  RH WIND       PRES   REMARKS
WASHINGTON NAT LGT RAIN  69  63  81 S17G25    29.62F
DULLES         LGT RAIN  63  61  94 S9G21     29.62R FOG
ANDREWS AFB    LGT RAIN  67  64  90 S16       29.63F
FT BELVOIR     LGT RAIN  66  66  99 S7        29.63F FOG
QUANTICO       HVY RAIN  64  61  90 S17       29.65S FOG
COLLEGE PARK*  CLOUDY    68  64  88 S9G17     29.61F
LEESBURG*      LGT RAIN  63  63 100 SW8       29.62S
GAITHERSBURG*  CLOUDY    64  61  88 S9G18     29.63F

$$

MDZ006>007-011-014-151300-
BALTIMORE METRO

CITY           SKY/WX    TMP DP  RH WIND       PRES   REMARKS
BWI AIRPORT    CLOUDY    63  61  93 SE12G21   29.62F
MD SCIENCE CTR   N/A     64  62  93 MISG      29.63F
ANNAPOLIS      CLOUDY    63  61  93 S20G32    29.65F
FORT MEADE*    CLOUDY    63  59  88 SE12      29.65F

$$

MDZ012-015-019>023-151300-
MARYLAND EASTERN SHORE

CITY           SKY/WX    TMP DP  RH WIND       PRES   REMARKS
OCEAN CITY     LGT RAIN  57  56  96 S15G26    29.77F FOG
SALISBURY      CLOUDY    67  63  87 S15G24    29.74F
BAY BRIDGE AP* CLOUDY    64  63  94 S16G24    29.66F
CAMBRIDGE*     CLOUDY    70  64  83 S12G24    29.69F
EASTON*        CLOUDY    70  70 100 S17G25    29.72F

$$

MDZ017>025-151300-
SOUTHERN MARYLAND

CITY           SKY/WX    TMP DP  RH WIND       PRES   REMARKS
PATUXENT RIVER LGT RAIN  66  62  87 S15       29.68F
ST INIGOES     CLOUDY    64  61  90 SE12G20   29.69F
LEONARDTOWN*   CLOUDY    64  61  88 SE9G18    29.69F

$$

MDZ003>005-151300-
NORTH CENTRAL MARYLAND

CITY           SKY/WX    TMP DP  RH WIND       PRES   REMARKS
FREDERICK*     NOT AVBL
HAGERSTOWN APT LGT RAIN  63  61  93 S14       29.58S
WESTMINSTER*   RAIN      63  61  94 S14G22    29.59F

$$

MDZ501>502-151300-
WESTERN MARYLAND

CITY           SKY/WX    TMP DP  RH WIND       PRES   REMARKS
OAKLAND*       CLOUDY    54 N/A N/A S9        29.59S HAZE
CUMBERLAND*    CLOUDY    59  59 100 SW3       29.60

$$

VAZ025>031-151300-
SHENANDOAH VALLEY

CITY           SKY/WX    TMP DP  RH WIND       PRES   REMARKS
WINCHESTER*    LGT RAIN  61  61 100 SW5       29.59F
STAUNTON*      LGT RAIN  61  58  92 S6        29.64F

$$

WVZ021-048>050-054>055-151300-
EASTERN WEST VIRGINIA PANHANDLE

CITY           SKY/WX    TMP DP  RH WIND       PRES   REMARKS
MARTINSBURG    LGT RAIN  63  60  90 S9        29.59S
PETERSBURG*    CLOUDY    64  63  94 CALM      29.58F

$$

VAZ036>039-050-151300-
CENTRAL FOOTHILLS

CITY           SKY/WX    TMP DP  RH WIND       PRES   REMARKS
CHARLOTTESVILL LGT RAIN  63  62  97 S9        29.63F
CULPEPER*      RAIN      64  64 100 S5        29.64S

$$

VAZ055>057-151300-
NORTH AND CENTRAL PIEDMONT

CITY           SKY/WX    TMP DP  RH WIND       PRES   REMARKS
FREDERICKSBRG* HVY RAIN  68  66  94 S13G18    29.64S
STAFFORD*      HVY RAIN  67  67 100 S9        29.68S

$$

NCZ024-NYZ072-PAZ021-071-VAZ022-071-151300-
OTHER REGIONAL OBSERVATIONS

CITY           SKY/WX    TMP DP  RH WIND       PRES   REMARKS
NEW YORK CITY  CLOUDY    60  57  89 MISG      29.76F
PHILADELPHIA   CLOUDY    66  60  81 S16G25    29.69F
PITTSBURGH     LGT RAIN  37  35  92 N16       29.68R FOG     WCI  28
ROANOKE        LGT RAIN  61  60  97 CALM      29.67S FOG
RICHMOND       LGT RAIN  69  65  86 S14       29.67F FOG
RALEIGH        CLOUDY    66  62  87 SW9       29.73F

$$

ANZ530>537-151300-
MARINE OBSERVATIONS

STATION/POSITION TIME  TEMP    WIND        PRES
                       AIR SEA DIR/SP/G
                 (UTC) (F)     (DEG/KT/KT) (MB)
THOMAS PT LIGHT  1200   59 52  170/ 22/ 23 1004.5F
BALT KEY BRIDGE  1200   63     150/ 21/ 25 1002.8F
COVE POINT       1200   56     190/ 21/ 25 1005.3F
LEWISETTA        1200   67 59  170/ 14/ 16 1005.0F
SOLOMONS ISLAND  1200      53                N/A
PINEY POINT      1200          150/ 15/ 16   N/A

$$




USA.gov is the U.S. government's official web portal to all federal, state and local government web resources and services.